EW7598 Weather Reports


Display with metric or nautical units.
time (UTC)temp
F
wind
direction
speed
MPH
gust
MPH
rain 1hr
in
rain 24hr
in
rain mn
in
humidity
%
barometer
mb
20260508054552 48 354 0.0 0.0 0.00 0.56 0.00 75 1014.0
20260508053055 48 354 0.0 0.0 0.00 0.56 0.00 74 1014.0
20260508051612 48 355 0.0 1.0 0.00 0.56 0.00 74 1014.0
20260508050046 49 354 0.0 0.0 0.00 0.56 0.00 74 1013.8
20260508044545 49 355 0.0 0.0 0.00 0.61 0.00 74 1013.7
20260508043042 49 355 0.0 0.0 0.00 0.61 0.00 74 1013.5
20260508041543 50 355 0.0 0.0 0.00 0.61 0.00 74 1013.5
20260508040038 50 355 0.0 0.0 0.00 0.61 0.00 74 1013.6
20260508034538 50 355 0.0 0.0 0.00 0.77 0.61 74 1013.4
20260508033043 50 355 0.0 0.0 0.00 0.77 0.61 73 1013.3
20260508031537 51 355 0.0 0.0 0.00 0.77 0.61 73 1013.1
20260508030033 51 355 0.0 0.0 0.00 0.77 0.61 73 1012.9
20260508024531 51 355 0.0 0.0 0.00 0.78 0.61 73 1013.0
20260508023031 52 355 0.0 0.0 0.00 0.78 0.61 73 1012.8
20260508021531 52 355 0.0 0.0 0.00 0.78 0.61 73 1012.6
20260508020020 53 355 0.0 0.0 0.00 0.78 0.61 73 1012.3
20260508014518 53 355 0.0 0.0 0.00 0.78 0.61 72 1012.0
20260508013016 54 355 0.0 0.0 0.00 0.78 0.61 72 1011.9
20260508011516 54 355 0.0 0.0 0.00 0.78 0.61 72 1011.5
20260508010031 54 355 0.0 0.0 0.00 0.78 0.61 72 1011.2
20260508004513 54 355 0.0 1.0 0.00 0.79 0.61 72 1011.2
20260508003011 55 356 0.0 0.0 0.00 0.79 0.61 72 1011.4
20260508001511 55 356 0.0 1.0 0.00 0.79 0.61 72 1011.3
20260508000010 55 356 0.0 0.0 0.00 0.79 0.61 72 1011.3
20260507234511 55 356 0.0 0.0 0.00 0.79 0.61 72 1010.7
20260507233010 55 356 0.0 2.0 0.00 0.79 0.61 72 1010.3
20260507231509 55 301 0.0 3.0 0.01 0.79 0.61 72 1010.0
20260507230019 55 281 0.0 3.0 0.01 0.79 0.61 72 1009.9
20260507224510 55 329 0.0 2.0 0.01 0.79 0.61 73 1009.4
20260507223006 55 303 0.0 2.0 0.03 0.79 0.61 73 1009.6
20260507221506 55 354 0.0 7.0 0.06 0.78 0.60 73 1009.5
20260507220006 56 256 0.0 3.0 0.06 0.78 0.60 72 1009.2
20260507214605 55 1 1.0 5.0 0.07 0.78 0.60 72 1009.2
20260507213004 55 226 1.0 5.0 0.13 0.75 0.56 73 1009.0
20260507211503 55 344 1.0 7.0 0.12 0.72 0.54 73 1009.2
20260507210002 55 6 2.0 7.0 0.11 0.71 0.53 74 1009.0
20260507204502 55 332 0.0 11.0 0.11 0.71 0.53 75 1008.9
20260507203100 55 338 2.0 8.0 0.02 0.62 0.44 76 1009.4
20260507201614 56 18 0.0 7.0 0.00 0.60 0.42 76 1009.0
20260507200108 57 13 2.0 6.0 0.00 0.60 0.42 76 1009.1
20260507194553 57 27 2.0 10.0 0.00 0.60 0.42 74 1008.8
20260507193053 58 360 1.0 7.0 0.00 0.60 0.42 75 1008.8
20260507191552 58 209 0.0 7.0 0.01 0.60 0.42 71 1008.7
20260507190053 58 333 1.0 8.0 0.01 0.60 0.42 70 1009.1
20260507184550 57 359 1.0 7.0 0.01 0.61 0.42 71 1008.8
20260507183048 57 6 2.0 7.0 0.01 0.61 0.42 72 1009.0
20260507181545 58 358 2.0 10.0 0.00 0.60 0.41 73 1008.8
20260507180045 60 315 0.0 4.0 0.00 0.60 0.41 70 1008.8
20260507174548 61 323 0.0 10.0 0.00 0.64 0.41 69 1008.7
20260507173037 62 324 1.0 6.0 0.00 0.64 0.41 68 1008.8
20260507171534 62 335 0.0 6.0 0.00 0.64 0.41 68 1008.7
20260507170034 63 286 0.0 9.0 0.00 0.64 0.41 69 1009.0
20260507164531 65 32 2.0 9.0 0.01 0.64 0.41 67 1008.3
20260507163030 65 352 0.0 2.0 0.01 0.64 0.41 67 1008.1
20260507161530 64 18 0.0 2.0 0.02 0.64 0.41 67 1008.3
20260507160025 64 27 0.0 4.0 0.05 0.64 0.41 67 1008.4
20260507154528 64 4 0.0 0.0 0.04 0.63 0.40 67 1009.0
20260507153024 64 4 0.0 3.0 0.06 0.63 0.40 68 1009.2
20260507151526 64 1 0.0 0.0 0.08 0.62 0.39 68 1009.7
20260507150023 64 1 0.0 3.0 0.05 0.59 0.36 68 1009.5
20260507144528 64 2 0.0 2.0 0.06 0.59 0.36 68 1008.7
20260507143021 64 266 0.0 0.0 0.06 0.56 0.34 68 1009.1
20260507141521 64 266 0.0 0.0 0.04 0.54 0.31 68 1009.3
20260507140021 64 266 0.0 1.0 0.06 0.53 0.30 68 1008.6
20260507134519 64 266 0.0 1.0 0.11 0.53 0.30 68 1008.4
20260507133017 64 266 0.0 0.0 0.12 0.51 0.28 68 1008.9
20260507131524 63 266 0.0 0.0 0.12 0.49 0.26 68 1009.4
20260507130016 64 266 0.0 1.0 0.13 0.46 0.23 68 1010.0
20260507124516 64 237 0.0 0.0 0.11 0.41 0.18 68 1010.3
20260507123014 64 237 0.0 0.0 0.09 0.39 0.16 68 1009.7
20260507121513 64 237 0.0 0.0 0.07 0.37 0.14 68 1009.6
20260507120013 63 237 0.0 0.0 0.02 0.32 0.09 68 1009.7
20260507114513 63 237 0.0 0.0 0.00 0.30 0.07 68 1009.3
20260507113011 63 237 0.0 0.0 0.00 0.30 0.07 68 1009.5
20260507111511 63 237 0.0 0.0 0.00 0.30 0.07 68 1009.3
20260507110009 63 237 0.0 0.0 0.00 0.30 0.07 68 1009.5
20260507104510 63 237 0.0 0.0 0.00 0.30 0.07 68 1009.3
20260507103008 63 237 0.0 0.0 0.01 0.30 0.07 68 1009.4
20260507101508 63 156 0.0 0.0 0.01 0.30 0.07 68 1009.2
20260507100007 63 155 0.0 0.0 0.01 0.30 0.07 68 1009.1
20260507094506 63 155 0.0 0.0 0.01 0.30 0.07 68 1009.4
20260507093006 63 156 0.0 0.0 0.00 0.28 0.06 68 1009.3
20260507091507 63 156 0.0 1.0 0.00 0.28 0.06 68 1009.6
20260507090005 63 164 1.0 3.0 0.00 0.28 0.06 68 1008.8
20260507084504 63 193 0.0 0.0 0.00 0.28 0.06 68 1008.9
20260507083004 63 193 0.0 0.0 0.00 0.28 0.06 68 1009.2
20260507081503 63 188 0.0 2.0 0.00 0.28 0.06 68 1009.2
20260507080002 63 188 0.0 2.0 0.00 0.28 0.06 68 1009.4
20260507074623 63 195 0.0 1.0 0.00 0.28 0.06 68 1009.9
20260507073104 63 195 0.0 0.0 0.00 0.28 0.06 68 1009.9
20260507071559 63 195 0.0 1.0 0.01 0.28 0.06 68 1009.6
20260507064558 63 211 0.0 1.0 0.01 0.28 0.06 68 1010.3
20260507063058 63 211 0.0 0.0 0.02 0.28 0.06 68 1010.5
20260507061557 63 211 0.0 0.0 0.01 0.28 0.05 68 1010.5
20260507060105 63 211 0.0 0.0 0.01 0.28 0.05 68 1011.7